Year,Month,Day,Hour,Minute,Value (Times are PST for temperature in C)
2021,06,28,00,00,24.10
2021,06,28,00,01,24.10
2021,06,28,00,02,24.10
2021,06,28,00,03,24.10
2021,06,28,00,04,24.10
2021,06,28,00,05,24.10
2021,06,28,00,06,24.10
2021,06,28,00,07,24.10
2021,06,28,00,08,24.10
2021,06,28,00,09,24.10
2021,06,28,00,10,24.00
2021,06,28,00,11,23.90
2021,06,28,00,12,23.90
2021,06,28,00,13,23.90
2021,06,28,00,14,23.90
2021,06,28,00,15,23.90
2021,06,28,00,16,23.90
2021,06,28,00,17,23.90
2021,06,28,00,18,23.90
2021,06,28,00,19,23.80
2021,06,28,00,20,23.80
2021,06,28,00,21,23.80
2021,06,28,00,22,23.80
2021,06,28,00,23,23.80
2021,06,28,00,24,23.80
2021,06,28,00,25,23.80
2021,06,28,00,26,23.80
2021,06,28,00,27,23.70
2021,06,28,00,28,23.70
2021,06,28,00,29,23.70
2021,06,28,00,30,23.70
2021,06,28,00,31,23.70
2021,06,28,00,32,23.70
2021,06,28,00,33,23.70
2021,06,28,00,34,23.70
2021,06,28,00,35,23.70
2021,06,28,00,36,23.70
2021,06,28,00,37,23.70
2021,06,28,00,38,23.70
2021,06,28,00,39,23.70
2021,06,28,00,40,23.70
2021,06,28,00,41,23.70
2021,06,28,00,42,23.70
2021,06,28,00,43,23.60
2021,06,28,00,44,23.60
2021,06,28,00,45,23.60
2021,06,28,00,46,23.60
2021,06,28,00,47,23.60
2021,06,28,00,48,23.60
2021,06,28,00,49,23.60
2021,06,28,00,50,23.60
2021,06,28,00,51,23.50
2021,06,28,00,52,23.40
2021,06,28,00,53,23.40
2021,06,28,00,54,23.40
2021,06,28,00,55,23.40
2021,06,28,00,56,23.40
2021,06,28,00,57,23.40
2021,06,28,00,58,23.40
2021,06,28,00,59,23.40
2021,06,28,01,00,23.30
2021,06,28,01,01,23.30
2021,06,28,01,02,23.30
2021,06,28,01,03,23.30
2021,06,28,01,04,23.30
2021,06,28,01,05,23.30
2021,06,28,01,06,23.30
2021,06,28,01,07,23.30
2021,06,28,01,08,23.30
2021,06,28,01,09,23.30
2021,06,28,01,10,23.30
2021,06,28,01,11,23.30
2021,06,28,01,12,23.30
2021,06,28,01,13,23.30
2021,06,28,01,14,23.30
2021,06,28,01,15,23.30
2021,06,28,01,16,23.20
2021,06,28,01,17,23.20
2021,06,28,01,18,23.20
2021,06,28,01,19,23.20
2021,06,28,01,20,23.20
2021,06,28,01,21,23.20
2021,06,28,01,22,23.20
2021,06,28,01,23,23.20
2021,06,28,01,24,23.20
2021,06,28,01,25,23.20
2021,06,28,01,26,23.20
2021,06,28,01,27,23.20
2021,06,28,01,28,23.20
2021,06,28,01,29,23.10
2021,06,28,01,30,23.10
2021,06,28,01,31,23.10
2021,06,28,01,32,23.10
2021,06,28,01,33,23.10
2021,06,28,01,34,23.10
2021,06,28,01,35,23.10
2021,06,28,01,36,23.00
2021,06,28,01,37,22.90
2021,06,28,01,38,22.90
2021,06,28,01,39,22.90
2021,06,28,01,40,22.90
2021,06,28,01,41,22.90
2021,06,28,01,42,22.90
2021,06,28,01,43,22.90
2021,06,28,01,44,22.90
2021,06,28,01,45,22.90
2021,06,28,01,46,22.90
2021,06,28,01,47,22.90
2021,06,28,01,48,22.90
2021,06,28,01,49,22.90
2021,06,28,01,50,22.90
2021,06,28,01,51,22.90
2021,06,28,01,52,22.90
2021,06,28,01,53,22.90
2021,06,28,01,54,22.90
2021,06,28,01,55,22.90
2021,06,28,01,56,22.90
2021,06,28,01,57,22.90
2021,06,28,01,58,22.90
2021,06,28,01,59,22.90
2021,06,28,02,00,22.80
2021,06,28,02,01,22.80
2021,06,28,02,02,22.80
2021,06,28,02,03,22.80
2021,06,28,02,04,22.80
2021,06,28,02,05,22.70
2021,06,28,02,06,22.70
2021,06,28,02,07,22.70
2021,06,28,02,08,22.70
2021,06,28,02,09,22.70
2021,06,28,02,10,22.70
2021,06,28,02,11,22.70
2021,06,28,02,12,22.70
2021,06,28,02,13,22.70
2021,06,28,02,14,22.70
2021,06,28,02,15,22.70
2021,06,28,02,16,22.70
2021,06,28,02,17,22.70
2021,06,28,02,18,22.70
2021,06,28,02,19,22.70
2021,06,28,02,20,22.70
2021,06,28,02,21,22.70
2021,06,28,02,22,22.60
2021,06,28,02,23,22.60
2021,06,28,02,24,22.60
2021,06,28,02,25,22.60
2021,06,28,02,26,22.60
2021,06,28,02,27,22.60
2021,06,28,02,28,22.50
2021,06,28,02,29,22.50
2021,06,28,02,30,22.50
2021,06,28,02,31,22.50
2021,06,28,02,32,22.40
2021,06,28,02,33,22.40
2021,06,28,02,34,22.40
2021,06,28,02,35,22.30
2021,06,28,02,36,22.30
2021,06,28,02,37,22.30
2021,06,28,02,38,22.30
2021,06,28,02,39,22.30
2021,06,28,02,40,22.30
2021,06,28,02,41,22.30
2021,06,28,02,42,22.30
2021,06,28,02,43,22.30
2021,06,28,02,44,22.30
2021,06,28,02,45,22.30
2021,06,28,02,46,22.30
2021,06,28,02,47,22.30
2021,06,28,02,48,22.30
2021,06,28,02,49,22.30
2021,06,28,02,50,22.30
2021,06,28,02,51,22.30
2021,06,28,02,52,22.30
2021,06,28,02,53,22.30
2021,06,28,02,54,22.30
2021,06,28,02,55,22.30
2021,06,28,02,56,22.30
2021,06,28,02,57,22.30
2021,06,28,02,58,22.40
2021,06,28,02,59,22.40
2021,06,28,03,00,22.30
2021,06,28,03,01,22.30
2021,06,28,03,02,22.30
2021,06,28,03,03,22.30
2021,06,28,03,04,22.30
2021,06,28,03,05,22.30
2021,06,28,03,06,22.30
2021,06,28,03,07,22.30
2021,06,28,03,08,22.20
2021,06,28,03,09,22.20
2021,06,28,03,10,22.20
2021,06,28,03,11,22.20
2021,06,28,03,12,22.20
2021,06,28,03,13,22.20
2021,06,28,03,14,22.20
2021,06,28,03,15,22.20
2021,06,28,03,16,22.10
2021,06,28,03,17,22.10
2021,06,28,03,18,22.10
2021,06,28,03,19,22.00
2021,06,28,03,20,22.00
2021,06,28,03,21,22.00
2021,06,28,03,22,21.90
2021,06,28,03,23,21.90
2021,06,28,03,24,21.90
2021,06,28,03,25,21.90
2021,06,28,03,26,21.90
2021,06,28,03,27,21.80
2021,06,28,03,28,21.80
2021,06,28,03,29,21.80
2021,06,28,03,30,21.80
2021,06,28,03,31,21.70
2021,06,28,03,32,21.70
2021,06,28,03,33,21.70
2021,06,28,03,34,21.60
2021,06,28,03,35,21.60
2021,06,28,03,36,21.60
2021,06,28,03,37,21.60
2021,06,28,03,38,21.60
2021,06,28,03,39,21.60
2021,06,28,03,40,21.60
2021,06,28,03,41,21.60
2021,06,28,03,42,21.60
2021,06,28,03,43,21.60
2021,06,28,03,44,21.60
2021,06,28,03,45,21.60
2021,06,28,03,46,21.60
2021,06,28,03,47,21.60
2021,06,28,03,48,21.60
2021,06,28,03,49,21.60
2021,06,28,03,50,21.60
2021,06,28,03,51,21.60
2021,06,28,03,52,21.60
2021,06,28,03,53,21.60
2021,06,28,03,54,21.60
2021,06,28,03,55,21.60
2021,06,28,03,56,21.60
2021,06,28,03,57,21.60
2021,06,28,03,58,21.60
2021,06,28,03,59,21.60
2021,06,28,04,00,21.60
2021,06,28,04,01,21.60
2021,06,28,04,02,21.60
2021,06,28,04,03,21.60
2021,06,28,04,04,21.60
2021,06,28,04,05,21.60
2021,06,28,04,06,21.60
2021,06,28,04,07,21.60
2021,06,28,04,08,21.60
2021,06,28,04,09,21.60
2021,06,28,04,10,21.50
2021,06,28,04,11,21.40
2021,06,28,04,12,21.40
2021,06,28,04,13,21.40
2021,06,28,04,14,21.40
2021,06,28,04,15,21.40
2021,06,28,04,16,21.30
2021,06,28,04,17,21.30
2021,06,28,04,18,21.30
2021,06,28,04,19,21.30
2021,06,28,04,20,21.30
2021,06,28,04,21,21.30
2021,06,28,04,22,21.30
2021,06,28,04,23,21.30
2021,06,28,04,24,21.20
2021,06,28,04,25,21.20
2021,06,28,04,26,21.20
2021,06,28,04,27,21.20
2021,06,28,04,28,21.10
2021,06,28,04,29,21.10
2021,06,28,04,30,21.10
2021,06,28,04,31,21.10
2021,06,28,04,32,21.10
2021,06,28,04,33,21.00
2021,06,28,04,34,21.00
2021,06,28,04,35,21.00
2021,06,28,04,36,21.00
2021,06,28,04,37,21.00
2021,06,28,04,38,21.00
2021,06,28,04,39,20.90
2021,06,28,04,40,20.90
2021,06,28,04,41,20.90
2021,06,28,04,42,20.90
2021,06,28,04,43,20.90
2021,06,28,04,44,20.90
2021,06,28,04,45,20.90
2021,06,28,04,46,20.90
2021,06,28,04,47,20.90
2021,06,28,04,48,20.90
2021,06,28,04,49,20.90
2021,06,28,04,50,20.90
2021,06,28,04,51,20.90
2021,06,28,04,52,20.90
2021,06,28,04,53,20.90
2021,06,28,04,54,20.90
2021,06,28,04,55,20.90
2021,06,28,04,56,20.90
2021,06,28,04,57,20.80
2021,06,28,04,58,20.80
2021,06,28,04,59,20.80
2021,06,28,05,00,20.80
2021,06,28,05,01,20.80
2021,06,28,05,02,20.80
2021,06,28,05,03,20.80
2021,06,28,05,04,20.80
2021,06,28,05,05,20.80
2021,06,28,05,06,20.70
2021,06,28,05,07,20.70
2021,06,28,05,08,20.70
2021,06,28,05,09,20.70
2021,06,28,05,10,20.70
2021,06,28,05,11,20.70
2021,06,28,05,12,20.70
2021,06,28,05,13,20.70
2021,06,28,05,14,20.70
2021,06,28,05,15,20.70
2021,06,28,05,16,20.70
2021,06,28,05,17,20.70
2021,06,28,05,18,20.70
2021,06,28,05,19,20.70
2021,06,28,05,20,20.70
2021,06,28,05,21,20.70
2021,06,28,05,22,20.70
2021,06,28,05,23,20.70
2021,06,28,05,24,20.70
2021,06,28,05,25,20.70
2021,06,28,05,26,20.70
2021,06,28,05,27,20.70
2021,06,28,05,28,20.70
2021,06,28,05,29,20.70
2021,06,28,05,30,20.70
2021,06,28,05,31,20.70
2021,06,28,05,32,20.70
2021,06,28,05,33,20.70
2021,06,28,05,34,20.70
2021,06,28,05,35,20.70
2021,06,28,05,36,20.70
2021,06,28,05,37,20.70
2021,06,28,05,38,20.80
2021,06,28,05,39,20.90
2021,06,28,05,40,21.00
2021,06,28,05,41,21.10
2021,06,28,05,42,21.20
2021,06,28,05,43,21.40
2021,06,28,05,44,21.60
2021,06,28,05,45,21.90
2021,06,28,05,46,22.10
2021,06,28,05,47,22.30
2021,06,28,05,48,22.50
2021,06,28,05,49,22.70
2021,06,28,05,50,22.90
2021,06,28,05,51,23.10
2021,06,28,05,52,23.30
2021,06,28,05,53,23.50
2021,06,28,05,54,23.70
2021,06,28,05,55,23.80
2021,06,28,05,56,23.90
2021,06,28,05,57,24.10
2021,06,28,05,58,24.10
2021,06,28,05,59,24.20
2021,06,28,06,00,24.30
2021,06,28,06,01,24.40
2021,06,28,06,02,24.40
2021,06,28,06,03,24.40
2021,06,28,06,04,24.40
2021,06,28,06,05,24.40
2021,06,28,06,06,24.40
2021,06,28,06,07,24.40
2021,06,28,06,08,24.40
2021,06,28,06,09,24.40
2021,06,28,06,10,24.40
2021,06,28,06,11,24.40
2021,06,28,06,12,24.40
2021,06,28,06,13,24.40
2021,06,28,06,14,24.30
2021,06,28,06,15,24.40
2021,06,28,06,16,24.40
2021,06,28,06,17,24.40
2021,06,28,06,18,24.40
2021,06,28,06,19,24.50
2021,06,28,06,20,24.50
2021,06,28,06,21,24.60
2021,06,28,06,22,24.60
2021,06,28,06,23,24.70
2021,06,28,06,24,24.80
2021,06,28,06,25,24.90
2021,06,28,06,26,25.00
2021,06,28,06,27,25.10
2021,06,28,06,28,25.20
2021,06,28,06,29,25.30
2021,06,28,06,30,25.40
2021,06,28,06,31,25.50
2021,06,28,06,32,25.60
2021,06,28,06,33,25.70
2021,06,28,06,34,25.80
2021,06,28,06,35,25.90
2021,06,28,06,36,26.00
2021,06,28,06,37,26.10
2021,06,28,06,38,26.20
2021,06,28,06,39,26.30
2021,06,28,06,40,26.40
2021,06,28,06,41,26.50
2021,06,28,06,42,26.60
2021,06,28,06,43,26.70
2021,06,28,06,44,26.80
2021,06,28,06,45,26.90
2021,06,28,06,46,27.00
2021,06,28,06,47,27.10
2021,06,28,06,48,27.30
2021,06,28,06,49,27.40
2021,06,28,06,50,27.50
2021,06,28,06,51,27.60
2021,06,28,06,52,27.80
2021,06,28,06,53,27.90
2021,06,28,06,54,28.00
2021,06,28,06,55,28.10
2021,06,28,06,56,28.30
2021,06,28,06,57,28.30
2021,06,28,06,58,28.40
2021,06,28,06,59,28.60
2021,06,28,07,00,28.60
2021,06,28,07,01,28.80
2021,06,28,07,02,28.90
2021,06,28,07,03,28.90
2021,06,28,07,04,29.00
2021,06,28,07,05,29.10
2021,06,28,07,06,29.20
2021,06,28,07,07,29.20
2021,06,28,07,08,29.30
2021,06,28,07,09,29.40
2021,06,28,07,10,29.50
2021,06,28,07,11,29.50
2021,06,28,07,12,29.60
2021,06,28,07,13,29.70
2021,06,28,07,14,29.80
2021,06,28,07,15,29.80
2021,06,28,07,16,29.90
2021,06,28,07,17,30.00
2021,06,28,07,18,30.10
2021,06,28,07,19,30.10
2021,06,28,07,20,30.20
2021,06,28,07,21,30.20
2021,06,28,07,22,30.30
2021,06,28,07,23,30.30
2021,06,28,07,24,30.40
2021,06,28,07,25,30.50
2021,06,28,07,26,30.60
2021,06,28,07,27,30.60
2021,06,28,07,28,30.70
2021,06,28,07,29,30.70
2021,06,28,07,30,30.80
2021,06,28,07,31,30.80
2021,06,28,07,32,30.90
2021,06,28,07,33,31.00
2021,06,28,07,34,31.00
2021,06,28,07,35,31.10
2021,06,28,07,36,31.10
2021,06,28,07,37,31.20
2021,06,28,07,38,31.20
2021,06,28,07,39,31.30
2021,06,28,07,40,31.30
2021,06,28,07,41,31.40
2021,06,28,07,42,31.40
2021,06,28,07,43,31.40
2021,06,28,07,44,31.40
2021,06,28,07,45,31.50
2021,06,28,07,46,31.60
2021,06,28,07,47,31.60
2021,06,28,07,48,31.60
2021,06,28,07,49,31.60
2021,06,28,07,50,31.70
2021,06,28,07,51,31.70
2021,06,28,07,52,31.80
2021,06,28,07,53,31.90
2021,06,28,07,54,31.90
2021,06,28,07,55,32.00
2021,06,28,07,56,32.10
2021,06,28,07,57,32.10
2021,06,28,07,58,32.20
2021,06,28,07,59,32.20
2021,06,28,08,00,32.30
2021,06,28,08,01,32.30
2021,06,28,08,02,32.30
2021,06,28,08,03,32.40
2021,06,28,08,04,32.40
2021,06,28,08,05,32.50
2021,06,28,08,06,32.50
2021,06,28,08,07,32.60
2021,06,28,08,08,32.60
2021,06,28,08,09,32.80
2021,06,28,08,10,32.80
2021,06,28,08,11,32.80
2021,06,28,08,12,32.90
2021,06,28,08,13,32.90
2021,06,28,08,14,32.90
2021,06,28,08,15,32.90
2021,06,28,08,16,33.00
2021,06,28,08,17,33.00
2021,06,28,08,18,33.00
2021,06,28,08,19,33.00
2021,06,28,08,20,33.10
2021,06,28,08,21,33.10
2021,06,28,08,22,33.10
2021,06,28,08,23,33.10
2021,06,28,08,24,33.10
2021,06,28,08,25,33.10
2021,06,28,08,26,33.10
2021,06,28,08,27,33.10
2021,06,28,08,28,33.20
2021,06,28,08,29,33.20
2021,06,28,08,30,33.20
2021,06,28,08,31,33.30
2021,06,28,08,32,33.40
2021,06,28,08,33,33.40
2021,06,28,08,34,33.40
2021,06,28,08,35,33.40
2021,06,28,08,36,33.40
2021,06,28,08,37,33.50
2021,06,28,08,38,33.50
2021,06,28,08,39,33.50
2021,06,28,08,40,33.50
2021,06,28,08,41,33.50
2021,06,28,08,42,33.50
2021,06,28,08,43,33.50
2021,06,28,08,44,33.60
2021,06,28,08,45,33.60
2021,06,28,08,46,33.60
2021,06,28,08,47,33.60
2021,06,28,08,48,33.60
2021,06,28,08,49,33.70
2021,06,28,08,50,33.70
2021,06,28,08,51,33.80
2021,06,28,08,52,33.80
2021,06,28,08,53,33.80
2021,06,28,08,54,33.80
2021,06,28,08,55,33.80
2021,06,28,08,56,34.00
2021,06,28,08,57,34.00
2021,06,28,08,58,34.10
2021,06,28,08,59,34.10
2021,06,28,09,00,34.10
2021,06,28,09,01,34.20
2021,06,28,09,02,34.20
2021,06,28,09,03,34.20
2021,06,28,09,04,34.20
2021,06,28,09,05,34.20
2021,06,28,09,06,34.20
2021,06,28,09,07,34.30
2021,06,28,09,08,34.30
2021,06,28,09,09,34.30
2021,06,28,09,10,34.40
2021,06,28,09,11,34.40
2021,06,28,09,12,34.40
2021,06,28,09,13,34.60
2021,06,28,09,14,34.60
2021,06,28,09,15,34.60
2021,06,28,09,16,34.70
2021,06,28,09,17,34.70
2021,06,28,09,18,34.70
2021,06,28,09,19,34.70
2021,06,28,09,20,34.70
2021,06,28,09,21,34.70
2021,06,28,09,22,34.80
2021,06,28,09,23,34.80
2021,06,28,09,24,34.80
2021,06,28,09,25,34.80
2021,06,28,09,26,34.80
2021,06,28,09,27,34.80
2021,06,28,09,28,34.80
2021,06,28,09,29,34.80
2021,06,28,09,30,34.90
2021,06,28,09,31,34.90
2021,06,28,09,32,34.90
2021,06,28,09,33,34.90
2021,06,28,09,34,34.90
2021,06,28,09,35,34.90
2021,06,28,09,36,34.90
2021,06,28,09,37,34.90
2021,06,28,09,38,34.90
2021,06,28,09,39,34.90
2021,06,28,09,40,34.90
2021,06,28,09,41,34.80
2021,06,28,09,42,34.60
2021,06,28,09,43,34.30
2021,06,28,09,44,33.90
2021,06,28,09,45,33.50
2021,06,28,09,46,33.20
2021,06,28,09,47,33.00
2021,06,28,09,48,32.80
2021,06,28,09,49,32.60
2021,06,28,09,50,32.40
2021,06,28,09,51,32.30
2021,06,28,09,52,32.20
2021,06,28,09,53,32.10
2021,06,28,09,54,31.90
2021,06,28,09,55,31.70
2021,06,28,09,56,31.60
2021,06,28,09,57,31.40
2021,06,28,09,58,31.30
2021,06,28,09,59,31.20
2021,06,28,10,00,31.10
2021,06,28,10,01,31.10
2021,06,28,10,02,31.00
2021,06,28,10,03,30.90
2021,06,28,10,04,30.90
2021,06,28,10,05,30.80
2021,06,28,10,06,30.80
2021,06,28,10,07,30.80
2021,06,28,10,08,30.70
2021,06,28,10,09,30.70
2021,06,28,10,10,30.70
2021,06,28,10,11,30.70
2021,06,28,10,12,30.70
2021,06,28,10,13,30.70
2021,06,28,10,14,30.70
2021,06,28,10,15,30.70
2021,06,28,10,16,30.70
2021,06,28,10,17,30.70
2021,06,28,10,18,30.70
2021,06,28,10,19,30.70
2021,06,28,10,20,30.80
2021,06,28,10,21,30.90
2021,06,28,10,22,30.90
2021,06,28,10,23,31.00
2021,06,28,10,24,31.20
2021,06,28,10,25,31.20
2021,06,28,10,26,31.30
2021,06,28,10,27,31.30
2021,06,28,10,28,31.30
2021,06,28,10,29,31.30
2021,06,28,10,30,31.20
2021,06,28,10,31,31.20
2021,06,28,10,32,31.20
2021,06,28,10,33,31.20
2021,06,28,10,34,31.20
2021,06,28,10,35,31.20
2021,06,28,10,36,31.20
2021,06,28,10,37,31.20
2021,06,28,10,38,31.30
2021,06,28,10,39,31.50
2021,06,28,10,40,31.60
2021,06,28,10,41,31.70
2021,06,28,10,42,31.80
2021,06,28,10,43,31.80
2021,06,28,10,44,31.90
2021,06,28,10,45,31.90
2021,06,28,10,46,31.80
2021,06,28,10,47,31.90
2021,06,28,10,48,31.80
2021,06,28,10,49,31.80
2021,06,28,10,50,31.70
2021,06,28,10,51,31.70
2021,06,28,10,52,31.80
2021,06,28,10,53,31.80
2021,06,28,10,54,31.80
2021,06,28,10,55,31.80
2021,06,28,10,56,31.70
2021,06,28,10,57,31.70
2021,06,28,10,58,31.80
2021,06,28,10,59,32.10
2021,06,28,11,00,32.20
2021,06,28,11,01,32.50
2021,06,28,11,02,32.80
2021,06,28,11,03,33.20
2021,06,28,11,04,33.60
2021,06,28,11,05,34.10
2021,06,28,11,06,34.40
2021,06,28,11,07,34.80
2021,06,28,11,08,35.10
2021,06,28,11,09,35.50
2021,06,28,11,10,35.70
2021,06,28,11,11,35.90
2021,06,28,11,12,36.10
2021,06,28,11,13,36.30
2021,06,28,11,14,36.30
2021,06,28,11,15,36.40
2021,06,28,11,16,36.40
2021,06,28,11,17,36.50
2021,06,28,11,18,36.60
2021,06,28,11,19,36.60
2021,06,28,11,20,36.60
2021,06,28,11,21,36.60
2021,06,28,11,22,36.60
2021,06,28,11,23,36.60
2021,06,28,11,24,36.70
2021,06,28,11,25,36.70
2021,06,28,11,26,36.80
2021,06,28,11,27,36.90
2021,06,28,11,28,36.90
2021,06,28,11,29,36.90
2021,06,28,11,30,36.90
2021,06,28,11,31,36.90
2021,06,28,11,32,37.00
2021,06,28,11,33,37.10
2021,06,28,11,34,37.10
2021,06,28,11,35,37.20
2021,06,28,11,36,37.20
2021,06,28,11,37,37.20
2021,06,28,11,38,37.20
2021,06,28,11,39,37.20
2021,06,28,11,40,37.10
2021,06,28,11,41,37.10
2021,06,28,11,42,37.10
2021,06,28,11,43,37.10
2021,06,28,11,44,37.20
2021,06,28,11,45,37.20
2021,06,28,11,46,37.20
2021,06,28,11,47,37.20
2021,06,28,11,48,37.20
2021,06,28,11,49,37.20
2021,06,28,11,50,37.20
2021,06,28,11,51,37.20
2021,06,28,11,52,37.30
2021,06,28,11,53,37.30
2021,06,28,11,54,37.30
2021,06,28,11,55,37.30
2021,06,28,11,56,37.30
2021,06,28,11,57,37.30
2021,06,28,11,58,37.40
2021,06,28,11,59,37.40
2021,06,28,12,00,37.40
2021,06,28,12,01,37.50
2021,06,28,12,02,37.60
2021,06,28,12,03,37.60
2021,06,28,12,04,37.60
2021,06,28,12,05,37.60
2021,06,28,12,06,37.60
2021,06,28,12,07,37.60
2021,06,28,12,08,37.60
2021,06,28,12,09,37.60
2021,06,28,12,10,37.60
2021,06,28,12,11,37.70
2021,06,28,12,12,37.70
2021,06,28,12,13,37.70
2021,06,28,12,14,37.90
2021,06,28,12,15,37.90
2021,06,28,12,16,37.80
2021,06,28,12,17,37.70
2021,06,28,12,18,37.70
2021,06,28,12,19,37.60
2021,06,28,12,20,37.50
2021,06,28,12,21,37.40
2021,06,28,12,22,37.30
2021,06,28,12,23,37.30
2021,06,28,12,24,37.40
2021,06,28,12,25,37.40
2021,06,28,12,26,37.50
2021,06,28,12,27,37.60
2021,06,28,12,28,37.70
2021,06,28,12,29,37.70
2021,06,28,12,30,37.90
2021,06,28,12,31,37.90
2021,06,28,12,32,38.00
2021,06,28,12,33,38.00
2021,06,28,12,34,37.90
2021,06,28,12,35,37.90
2021,06,28,12,36,37.90
2021,06,28,12,37,37.90
2021,06,28,12,38,37.90
2021,06,28,12,39,37.90
2021,06,28,12,40,38.00
2021,06,28,12,41,38.00
2021,06,28,12,42,38.00
2021,06,28,12,43,38.00
2021,06,28,12,44,38.00
2021,06,28,12,45,38.10
2021,06,28,12,46,38.10
2021,06,28,12,47,38.00
2021,06,28,12,48,38.00
2021,06,28,12,49,38.00
2021,06,28,12,50,38.00
2021,06,28,12,51,38.00
2021,06,28,12,52,38.00
2021,06,28,12,53,38.00
2021,06,28,12,54,38.00
2021,06,28,12,55,37.90
2021,06,28,12,56,37.90
2021,06,28,12,57,38.00
2021,06,28,12,58,38.00
2021,06,28,12,59,38.00
2021,06,28,13,00,38.00
2021,06,28,13,01,37.90
2021,06,28,13,02,37.90
2021,06,28,13,03,37.70
2021,06,28,13,04,37.70
2021,06,28,13,05,37.70
2021,06,28,13,06,37.70
2021,06,28,13,07,37.70
2021,06,28,13,08,37.80
2021,06,28,13,09,37.90
2021,06,28,13,10,38.00
2021,06,28,13,11,38.00
2021,06,28,13,12,38.20
2021,06,28,13,13,38.20
2021,06,28,13,14,38.20
2021,06,28,13,15,38.30
2021,06,28,13,16,38.20
2021,06,28,13,17,38.20
2021,06,28,13,18,38.20
2021,06,28,13,19,38.20
2021,06,28,13,20,38.20
2021,06,28,13,21,38.20
2021,06,28,13,22,38.20
2021,06,28,13,23,38.30
2021,06,28,13,24,38.30
2021,06,28,13,25,38.30
2021,06,28,13,26,38.20
2021,06,28,13,27,38.20
2021,06,28,13,28,38.20
2021,06,28,13,29,38.30
2021,06,28,13,30,38.30
2021,06,28,13,31,38.40
2021,06,28,13,32,38.40
2021,06,28,13,33,38.40
2021,06,28,13,34,38.40
2021,06,28,13,35,38.40
2021,06,28,13,36,38.40
2021,06,28,13,37,38.50
2021,06,28,13,38,38.60
2021,06,28,13,39,38.60
2021,06,28,13,40,38.60
2021,06,28,13,41,38.60
2021,06,28,13,42,38.70
2021,06,28,13,43,38.70
2021,06,28,13,44,38.70
2021,06,28,13,45,38.90
2021,06,28,13,46,38.90
2021,06,28,13,47,38.90
2021,06,28,13,48,38.90
2021,06,28,13,49,39.10
2021,06,28,13,50,39.10
2021,06,28,13,51,39.10
2021,06,28,13,52,39.10
2021,06,28,13,53,39.00
2021,06,28,13,54,38.90
2021,06,28,13,55,38.90
2021,06,28,13,56,38.90
2021,06,28,13,57,38.90
2021,06,28,13,58,38.90
2021,06,28,13,59,38.90
2021,06,28,14,00,38.90
2021,06,28,14,01,38.90
2021,06,28,14,02,38.90
2021,06,28,14,03,38.90
2021,06,28,14,04,38.90
2021,06,28,14,05,38.90
2021,06,28,14,06,38.90
2021,06,28,14,07,39.10
2021,06,28,14,08,39.10
2021,06,28,14,09,39.10
2021,06,28,14,10,39.10
2021,06,28,14,11,39.10
2021,06,28,14,12,39.10
2021,06,28,14,13,39.10
2021,06,28,14,14,39.10
2021,06,28,14,15,39.10
2021,06,28,14,16,39.20
2021,06,28,14,17,39.20
2021,06,28,14,18,39.20
2021,06,28,14,19,39.20
2021,06,28,14,20,39.20
2021,06,28,14,21,39.20
2021,06,28,14,22,39.20
2021,06,28,14,23,39.20
2021,06,28,14,24,39.10
2021,06,28,14,25,39.10
2021,06,28,14,26,39.10
2021,06,28,14,27,39.20
2021,06,28,14,28,39.20
2021,06,28,14,29,39.20
2021,06,28,14,30,39.20
2021,06,28,14,31,39.20
2021,06,28,14,32,39.20
2021,06,28,14,33,39.20
2021,06,28,14,34,39.20
2021,06,28,14,35,39.20
2021,06,28,14,36,39.20
2021,06,28,14,37,39.20
2021,06,28,14,38,39.20
2021,06,28,14,39,39.20
2021,06,28,14,40,39.30
2021,06,28,14,41,39.30
2021,06,28,14,42,39.40
2021,06,28,14,43,39.50
2021,06,28,14,44,39.50
2021,06,28,14,45,39.50
2021,06,28,14,46,39.60
2021,06,28,14,47,39.60
2021,06,28,14,48,39.60
2021,06,28,14,49,39.60
2021,06,28,14,50,39.70
2021,06,28,14,51,39.80
2021,06,28,14,52,39.80
2021,06,28,14,53,39.80
2021,06,28,14,54,39.80
2021,06,28,14,55,39.80
2021,06,28,14,56,39.80
2021,06,28,14,57,39.80
2021,06,28,14,58,39.80
2021,06,28,14,59,39.80
2021,06,28,15,00,39.80
2021,06,28,15,01,39.80
2021,06,28,15,02,39.80
2021,06,28,15,03,39.80
2021,06,28,15,04,39.90
2021,06,28,15,05,39.90
2021,06,28,15,06,39.90
2021,06,28,15,07,39.90
2021,06,28,15,08,39.90
2021,06,28,15,09,39.90
2021,06,28,15,10,40.10
2021,06,28,15,11,40.10
2021,06,28,15,12,40.10
2021,06,28,15,13,40.10
2021,06,28,15,14,40.10
2021,06,28,15,15,40.10
2021,06,28,15,16,40.10
2021,06,28,15,17,40.10
2021,06,28,15,18,40.20
2021,06,28,15,19,40.20
2021,06,28,15,20,40.20
2021,06,28,15,21,40.20
2021,06,28,15,22,40.20
2021,06,28,15,23,40.20
2021,06,28,15,24,40.20
2021,06,28,15,25,40.20
2021,06,28,15,26,40.20
2021,06,28,15,27,40.20
2021,06,28,15,28,40.20
2021,06,28,15,29,40.20
2021,06,28,15,30,40.30
2021,06,28,15,31,40.30
2021,06,28,15,32,40.30
2021,06,28,15,33,40.30
2021,06,28,15,34,40.30
2021,06,28,15,35,40.30
2021,06,28,15,36,40.30
2021,06,28,15,37,40.30
2021,06,28,15,38,40.20
2021,06,28,15,39,40.20
2021,06,28,15,40,40.20
2021,06,28,15,41,40.30
2021,06,28,15,42,40.30
2021,06,28,15,43,40.30
2021,06,28,15,44,40.40
2021,06,28,15,45,40.50
2021,06,28,15,46,40.50
2021,06,28,15,47,40.50
2021,06,28,15,48,40.50
2021,06,28,15,49,40.50
2021,06,28,15,50,40.50
2021,06,28,15,51,40.30
2021,06,28,15,52,40.30
2021,06,28,15,53,40.30
2021,06,28,15,54,40.30
2021,06,28,15,55,40.30
2021,06,28,15,56,40.30
2021,06,28,15,57,40.30
2021,06,28,15,58,40.30
2021,06,28,15,59,40.20
2021,06,28,16,00,40.20
2021,06,28,16,01,40.20
2021,06,28,16,02,40.20
2021,06,28,16,03,40.20
2021,06,28,16,04,40.20
2021,06,28,16,05,40.20
2021,06,28,16,06,40.20
2021,06,28,16,07,40.20
2021,06,28,16,08,40.20
2021,06,28,16,09,40.20
2021,06,28,16,10,40.30
2021,06,28,16,11,40.30
2021,06,28,16,12,40.30
2021,06,28,16,13,40.30
2021,06,28,16,14,40.30
2021,06,28,16,15,40.30
2021,06,28,16,16,40.30
2021,06,28,16,17,40.30
2021,06,28,16,18,40.30
2021,06,28,16,19,40.30
2021,06,28,16,20,40.50
2021,06,28,16,21,40.50
2021,06,28,16,22,40.50
2021,06,28,16,23,40.50
2021,06,28,16,24,40.60
2021,06,28,16,25,40.60
2021,06,28,16,26,40.60
2021,06,28,16,27,40.60
2021,06,28,16,28,40.60
2021,06,28,16,29,40.60
2021,06,28,16,30,40.60
2021,06,28,16,31,40.60
2021,06,28,16,32,40.70
2021,06,28,16,33,40.80
2021,06,28,16,34,40.80
2021,06,28,16,35,40.90
2021,06,28,16,36,40.90
2021,06,28,16,37,40.90
2021,06,28,16,38,40.90
2021,06,28,16,39,40.90
2021,06,28,16,40,40.90
2021,06,28,16,41,40.90
2021,06,28,16,42,41.00
2021,06,28,16,43,41.10
2021,06,28,16,44,41.10
2021,06,28,16,45,41.10
2021,06,28,16,46,41.10
2021,06,28,16,47,41.20
2021,06,28,16,48,41.20
2021,06,28,16,49,41.20
2021,06,28,16,50,41.40
2021,06,28,16,51,41.40
2021,06,28,16,52,41.40
2021,06,28,16,53,41.40
2021,06,28,16,54,41.40
2021,06,28,16,55,41.40
2021,06,28,16,56,41.40
2021,06,28,16,57,41.40
2021,06,28,16,58,41.40
2021,06,28,16,59,41.40
2021,06,28,17,00,41.40
2021,06,28,17,01,41.30
2021,06,28,17,02,41.20
2021,06,28,17,03,41.20
2021,06,28,17,04,41.20
2021,06,28,17,05,41.20
2021,06,28,17,06,41.10
2021,06,28,17,07,41.10
2021,06,28,17,08,41.00
2021,06,28,17,09,40.90
2021,06,28,17,10,40.90
2021,06,28,17,11,40.80
2021,06,28,17,12,40.80
2021,06,28,17,13,40.80
2021,06,28,17,14,40.80
2021,06,28,17,15,40.80
2021,06,28,17,16,40.80
2021,06,28,17,17,40.80
2021,06,28,17,18,40.80
2021,06,28,17,19,40.80